INTELSAT 16 (IS-16)

Last updated on Thu Nov 21 2024 00:02:41 GMT+0000 (Coordinated Universal Time)

1 36397U 10006A 24325.28011785 -.00000243 00000+0 00000+0 0 9991 2 36397 0.0089 327.0114 0002410 274.6007 202.8209 1.00272301 53904
UTC large
Height (km)
Speed (km/s)
/
Latitude / Longitude
Inclination (degrees)
Orbital Period (minutes)
Azimuth
Elevation
Range (km)
Doppler Factor

Next 0 passes for location: London (51.5072 / 0.1276)

Sorry there are no passes over London.